Вернуться в каталог

STARLINK-11395

АктивенСвязьVLEO
NORAD 61951·PAYLOAD·🇺🇸 United States

Запущен Nov 14, 2024 с Vandenberg Space Force Base

Loading…

Ближайшие Пролёты (ближайшие 24 часа)

TLE

СвежийSource: CelesTrak SupGP

Эпоха: Sep 14, 2026, 21:25 UTC

1 61951C 24209N   26257.89284722 -.00035502  00000+0 -29236-3 0  2571
2 61951  53.1569 158.5002 0001065  98.4923 317.0135 15.69733918    14

Отслеживайте STARLINK-11395 в реальном времени с AllMySat

Download on the App Store